Theta_e
303 303 304 304 304 306 312 306 316 316 318 312 305 311 314 315 318 317 319 317 321 318 318 320 321 322 321 322 319 319 317 318 324 333 333 341 344 342 345 348 352 349 347 344
304 304 305 304 303 307 309 307 309 317 314 313 310 309 314 316 317 317 315 317 315 316 318 320 320 320 321 323 321 320 318 317 322 342 339 339 345 344 342 347 347 350 348 343
304 304 305 304 303 309 310 310 313 308 306 305 311 311 312 312 312 314 313 313 315 317 318 318 321 326 324 322 326 341 327 314 320 334 343 340 346 347 347 347 351 353 352 347
304 304 305 304 303 310 310 305 309 309 310 310 308 309 310 311 311 310 310 313 313 316 315 315 316 317 316 323 326 324 313 315 318 318 323 338 344 346 348 348 346 347 345 346
304 304 306 305 303 309 309 307 308 306 307 306 309 306 309 311 311 312 311 312 313 313 313 313 314 314 316 321 322 323 316 317 316 322 321 342 346 346 346 346 347 347 346 346
304 304 306 306 303 306 307 307 307 306 306 307 308 309 312 312 310 311 311 311 312 313 314 312 310 311 312 316 320 323 316 315 316 320 331 343 348 346 346 345 344 346 349 344
304 305 306 306 305 303 306 307 305 305 307 309 310 312 313 312 310 311 310 311 312 312 310 310 311 310 311 312 314 318 320 316 315 318 334 345 336 339 342 344 344 343 342 341
305 305 306 306 304 304 304 306 305 304 307 308 310 311 312 310 308 309 310 310 310 306 311 312 313 316 321 322 320 318 318 314 318 321 329 326 335 341 342 342 343 342 342 341
306 306 306 305 303 303 303 305 306 303 305 304 309 310 310 309 308 309 309 307 305 308 312 315 316 318 328 329 326 315 310 314 318 318 322 324 324 337 339 338 344 339 340 340
305 306 307 306 305 303 304 304 304 305 305 303 307 308 308 308 308 309 306 309 306 309 311 316 318 320 322 327 332 327 317 319 320 322 325 326 320 327 335 341 341 337 339 339
304 305 306 306 304 304 305 305 306 305 302 302 305 306 307 307 307 308 306 307 308 312 313 318 320 320 320 322 325 326 327 326 322 321 326 328 325 334 339 337 333 334 336 338
303 304 305 306 306 305 305 305 305 304 303 302 306 306 307 307 308 306 306 305 306 309 314 314 314 323 322 322 324 324 327 324 322 323 325 323 324 325 324 323 330 334 336 337
305 305 304 305 306 305 306 306 305 305 302 302 301 303 306 305 306 306 306 304 305 310 307 309 310 314 316 322 326 322 325 322 326 324 324 323 324 323 324 324 327 330 333 336
305 305 305 305 306 306 306 307 306 305 305 305 302 305 306 306 307 306 307 306 307 306 306 308 309 312 310 315 315 315 319 321 327 327 323 332 328 327 324 326 333 335 334 335
305 305 306 306 305 306 306 306 307 307 305 303 302 304 306 306 305 305 306 306 303 307 308 307 309 308 311 310 312 314 316 321 329 333 327 321 323 323 321 324 330 330 336 338
304 304 305 305 305 307 307 305 308 307 306 306 310 305 304 306 306 306 305 304 303 305 306 306 306 306 309 309 311 308 312 314 319 322 316 315 315 319 328 326 332 329 333 338
304 305 305 306 306 306 306 306 307 307 306 307 309 303 302 306 307 306 304 305 304 306 306 307 308 308 310 308 311 308 308 311 310 310 311 314 319 326 327 334 335 328 336 345
304 304 305 305 306 307 307 306 306 307 307 304 304 306 305 309 309 310 307 306 306 306 308 309 311 311 313 314 310 309 309 309 310 311 312 312 313 323 323 337 335 331 340 354
304 304 305 307 307 308 307 308 308 307 307 309 309 308 307 308 311 314 313 312 313 311 313 312 313 313 315 312 310 309 309 310 311 313 317 321 320 320 324 335 338 330 338 354
305 307 307 308 308 309 309 309 308 307 308 308 309 308 309 309 311 311 315 313 314 315 312 312 314 313 311 311 309 308 309 310 311 314 319 318 320 320 319 320 337 339 334 349
308 306 309 308 307 309 310 312 311 310 311 309 309 309 309 308 310 311 313 315 316 317 316 314 315 313 311 310 310 309 310 311 311 316 318 317 317 317 318 320 338 340 338 341
304 304 305 306 307 308 311 313 311 312 313 310 309 311 309 309 309 313 314 314 314 315 316 315 317 313 311 310 310 309 310 310 311 314 316 316 317 317 320 335 348 342 340 340
305 305 307 308 308 309 313 310 312 317 316 316 312 317 313 311 312 315 319 318 320 318 313 319 322 318 317 312 311 311 310 311 313 315 316 316 318 320 327 352 346 347 341 343
305 309 309 310 313 311 312 312 317 317 318 316 317 319 318 316 317 317 321 320 322 323 321 320 326 327 323 318 315 313 313 313 316 316 317 319 322 328 349 354 356 349 343 342
307 309 310 310 310 309 310 310 314 315 314 313 316 320 317 319 318 320 320 323 327 329 332 328 329 329 327 328 318 316 317 317 318 320 323 325 333 349 350 353 357 360 361 358
307 309 310 309 309 311 312 311 311 311 311 311 314 321 322 320 320 322 322 325 329 327 323 323 328 328 326 325 326 331 331 327 326 327 333 343 345 348 348 350 353 359 365 362
309 308 307 308 308 308 308 309 311 309 310 317 316 322 322 321 320 322 321 322 323 322 322 325 325 325 326 324 325 326 333 335 335 336 339 341 344 348 348 351 349 354 361 364
Wind_Speed
28 30 33 36 39 40 17 5 2 7 7 3 1 1 2 6 5 5 5 3 3 3 4 1 2 2 1 12 4 8 8 7 7 14 6 11 5 8 8 5 4 3 4 5
26 28 32 35 36 32 8 2 2 8 2 2 3 6 4 3 6 8 7 8 5 4 2 1 3 5 3 17 9 6 3 3 4 1 5 2 4 4 4 3 4 6 6 5
24 26 30 33 33 25 4 2 2 4 5 1 4 3 4 6 9 4 4 4 5 7 8 7 4 7 5 12 8 11 2 3 9 9 9 6 6 8 8 5 3 4 6 5
22 24 27 31 31 18 5 3 0 2 2 3 4 2 3 4 7 5 11 5 7 1 6 5 6 5 5 6 6 10 5 2 1 6 14 7 13 17 11 8 8 8 5 7
20 21 24 29 32 13 6 2 3 4 1 3 4 5 4 2 4 2 3 4 5 7 5 2 3 5 3 4 7 8 5 3 5 4 5 12 8 17 18 12 5 6 5 8
18 19 20 24 28 17 7 5 3 3 3 4 2 1 2 4 4 1 5 3 1 4 4 5 11 10 8 8 4 4 3 2 5 5 2 7 9 20 18 12 7 6 7 12
15 16 17 19 21 22 6 5 2 3 2 1 2 2 2 3 4 2 3 5 3 3 7 9 8 8 11 11 12 9 3 2 2 3 3 2 7 15 22 23 21 15 6 8
13 14 15 16 17 17 10 7 3 2 1 2 2 2 2 4 5 4 1 3 2 6 4 4 5 4 2 5 9 11 13 5 1 2 3 5 4 6 8 8 13 17 14 13
12 12 12 13 13 14 11 10 9 3 3 3 2 2 2 1 2 6 3 4 6 4 2 2 5 4 2 4 8 1 3 3 5 2 2 8 8 8 11 7 12 16 14 14
10 11 11 11 11 11 12 3 11 2 1 3 1 2 2 1 2 1 3 6 6 4 2 2 4 4 4 4 4 2 3 1 10 5 4 7 9 6 7 10 9 14 17 14
10 10 9 10 10 9 10 4 7 4 1 5 4 1 3 1 2 3 3 4 3 3 2 2 2 2 4 3 4 6 3 2 4 3 4 6 3 5 16 13 8 7 11 13
10 10 8 8 9 8 8 2 4 8 4 6 10 17 16 14 8 4 2 2 2 4 2 1 1 2 3 3 3 2 3 4 3 6 6 5 3 6 6 5 9 9 5 7
13 12 9 7 8 7 7 7 9 5 2 5 2 6 12 21 26 26 4 2 4 0 2 3 2 4 1 2 3 4 2 4 2 6 6 7 6 7 6 5 8 10 9 11
12 11 11 9 9 8 9 10 8 4 4 3 6 5 5 2 4 12 26 11 4 4 2 2 3 2 2 3 3 2 4 7 3 5 9 17 7 13 14 16 7 7 3 8
11 11 11 11 10 10 12 16 19 18 4 3 5 20 13 5 16 19 15 15 4 3 2 2 3 2 1 2 1 6 4 6 3 5 4 2 10 18 28 27 24 10 3 3
12 12 11 12 9 8 6 3 2 6 15 1 3 5 4 8 7 9 9 12 4 4 4 4 4 4 5 3 4 10 6 10 5 6 10 14 22 28 21 20 25 21 7 8
13 12 13 11 9 8 4 3 2 5 14 2 4 4 4 4 2 2 2 10 4 4 4 4 4 4 6 4 16 6 7 7 13 16 16 18 14 14 28 29 25 16 6 7
14 14 12 14 11 9 10 20 20 10 2 1 2 4 4 1 2 2 3 3 3 3 4 1 7 2 4 8 16 16 21 20 24 25 18 21 24 23 27 25 19 7 8 8
14 16 14 3 4 4 3 7 5 22 4 2 3 2 4 0 2 2 2 3 2 3 5 8 6 8 11 19 22 17 13 11 15 13 15 15 18 21 24 24 15 8 11 11
13 4 2 2 4 3 6 2 2 2 3 3 3 3 4 1 1 3 2 3 3 3 6 4 7 17 27 25 20 13 12 20 18 16 18 18 17 16 21 24 20 10 11 14
1 1 1 3 3 1 3 2 3 3 3 4 3 8 7 2 4 5 3 2 3 4 5 8 6 11 28 30 27 22 18 18 19 14 17 17 17 20 21 25 20 13 8 12
6 8 9 4 2 2 4 3 3 5 4 4 3 4 5 3 4 5 4 4 5 8 4 5 5 21 19 22 29 27 26 25 24 18 20 23 22 23 21 23 17 10 8 16
3 2 2 2 3 3 5 5 4 3 3 2 3 4 4 3 4 5 4 7 7 4 3 4 5 17 17 18 18 22 26 26 19 20 20 24 24 32 26 18 13 10 3 10
1 3 3 4 5 4 4 1 5 2 2 7 6 3 4 3 4 3 4 4 4 5 5 4 8 18 8 7 17 19 22 21 20 21 21 22 20 22 21 10 7 5 5 7
3 3 4 5 5 3 4 4 3 2 3 3 5 3 3 3 4 3 4 4 5 4 5 7 10 13 10 6 8 9 13 15 16 17 15 17 20 13 6 5 6 2 2 6
3 5 4 3 4 5 2 4 5 2 3 4 3 3 3 4 2 3 4 4 4 5 7 11 10 13 14 12 6 5 9 13 11 9 13 9 7 6 4 6 7 3 2 4
4 3 3 5 6 7 7 5 4 1 3 2 3 4 4 3 2 3 2 4 5 8 11 7 7 11 14 13 9 5 3 6 7 7 6 3 6 4 0 2 6 7 1 5
Wind_Direction
354 354 355 356 358 351 360 359 65 16 159 47 29 141 235 307 330 342 342 334 45 131 170 221 108 162 116 355 308 171 213 149 167 212 293 194 156 162 157 159 215 210 149 281
354 355 355 356 359 356 342 53 261 7 193 85 335 308 306 324 344 4 13 12 6 353 350 75 35 2 16 13 354 353 197 206 116 28 360 25 163 148 145 131 94 204 146 252
355 356 357 358 360 357 25 56 31 338 39 96 133 5 340 337 344 83 28 18 31 23 22 15 11 6 329 333 358 327 184 154 172 190 197 158 145 168 170 127 146 183 226 299
355 358 360 0 1 357 353 28 329 182 340 339 353 21 26 2 2 9 22 40 25 321 36 17 18 351 325 312 2 352 66 335 220 231 197 170 169 178 172 168 210 200 181 204
354 359 2 3 6 9 61 66 42 355 322 309 349 5 21 52 324 359 11 59 335 64 87 133 298 3 336 266 333 351 3 316 352 262 206 168 162 178 177 193 244 275 146 271
353 359 3 7 12 22 48 17 23 107 309 349 81 332 347 38 337 137 52 345 99 103 327 260 228 217 226 229 300 319 344 25 9 285 342 134 174 177 180 198 210 183 200 224
351 357 3 6 12 22 31 21 359 68 255 40 122 349 336 0 344 243 2 34 72 209 294 282 261 246 240 235 233 198 261 36 97 269 27 209 237 202 184 197 210 223 219 242
346 351 357 3 6 11 23 22 35 87 279 246 267 360 321 333 325 5 342 355 253 295 327 357 351 330 305 235 222 203 200 150 271 189 225 266 298 166 169 167 227 223 215 230
337 344 350 355 0 3 21 34 20 84 100 254 28 328 354 101 346 342 312 332 311 17 82 109 200 220 240 296 320 321 136 191 149 123 209 208 233 191 201 168 220 229 211 221
328 334 341 349 355 360 357 326 3 63 144 263 122 181 206 233 81 280 306 323 341 20 81 146 179 233 215 218 196 309 121 310 184 164 228 286 255 240 116 187 227 236 222 219
319 324 328 334 342 352 357 348 51 43 264 277 221 202 192 342 133 163 282 5 348 18 73 158 252 219 251 231 224 159 151 135 213 102 157 251 308 73 170 216 265 240 218 198
305 310 313 319 327 340 338 306 330 315 193 244 277 273 244 237 207 151 219 194 248 214 110 10 37 270 324 354 243 280 232 193 223 194 209 250 294 211 249 229 233 267 204 165
304 303 303 304 308 310 302 293 316 309 301 289 349 247 263 244 236 233 164 268 216 164 172 164 190 251 113 252 266 298 6 356 228 11 294 268 266 285 268 296 275 274 267 169
299 301 302 305 307 304 285 270 279 272 269 274 278 350 291 255 193 217 217 221 93 104 93 159 188 204 192 247 283 237 255 343 287 276 301 318 22 344 329 314 312 297 284 205
296 299 301 301 300 296 287 280 267 250 214 252 290 302 301 251 244 231 212 212 141 158 163 166 212 214 194 253 310 241 197 217 208 240 103 232 291 314 301 300 290 293 219 148
295 301 300 300 296 296 327 316 29 243 207 283 288 278 292 298 261 222 187 202 179 166 161 198 218 215 158 227 244 240 210 229 198 268 325 301 294 289 282 268 269 272 199 200
299 300 303 293 283 256 202 231 117 66 170 233 294 287 276 292 238 245 206 199 193 166 192 206 174 202 186 224 250 237 282 268 291 291 308 298 291 308 312 298 277 257 188 214
301 305 301 296 281 263 257 268 237 242 219 134 266 274 327 263 304 281 174 157 152 229 214 139 211 186 206 243 244 238 247 253 266 270 275 267 280 296 304 301 270 187 180 171
306 306 303 270 198 213 256 300 231 206 220 248 218 267 275 93 261 274 238 172 180 218 216 216 184 213 222 231 233 232 218 217 249 268 269 275 276 290 296 307 301 215 177 181
305 281 149 246 215 263 212 216 136 155 208 228 255 185 247 127 18 300 286 195 215 229 215 166 224 235 234 237 236 235 219 229 242 254 262 265 271 279 291 294 298 279 204 175
356 18 249 329 326 252 217 214 183 171 226 214 241 215 228 154 202 212 211 256 214 239 212 198 226 243 228 227 226 222 225 234 243 237 249 264 266 278 287 292 288 284 188 184
325 294 292 264 208 230 261 189 189 206 236 205 206 203 189 202 209 225 181 229 207 244 182 228 248 256 232 214 219 219 224 231 238 237 249 257 263 266 270 274 271 254 212 143
290 224 243 204 169 241 219 210 223 219 206 243 235 204 171 196 207 235 224 223 228 144 225 240 246 253 255 218 199 201 215 220 226 236 242 251 256 267 264 260 256 260 212 157
224 241 239 221 200 236 207 254 316 274 316 313 288 213 193 184 202 231 265 247 278 235 234 258 296 347 20 155 181 186 204 206 204 223 233 243 253 262 265 270 282 203 178 212
250 238 238 232 253 286 296 285 297 327 260 298 289 226 185 200 244 228 277 253 259 274 334 319 335 0 28 68 130 169 190 188 200 210 224 243 250 252 249 299 315 258 277 197
233 234 248 247 268 266 257 296 287 254 289 291 228 263 234 215 263 254 242 270 317 325 326 318 333 349 358 17 45 148 163 174 193 216 247 245 239 241 254 320 343 341 47 292
225 239 220 245 271 267 264 252 254 203 297 264 296 254 220 130 245 269 292 284 267 307 309 316 11 348 346 347 343 343 83 121 157 175 186 214 239 209 132 4 334 351 38 109